TimeIST,TemperatureF,Dew PointF,Humidity,Sea Level PressureIn,VisibilityMPH,Wind Direction,Wind SpeedMPH,Gust SpeedMPH,PrecipitationIn,Events,Conditions,WindDirDegrees,DateUTC
12:00 AM,59.0,50.0,72,29.92,2.5,West,3.5,-,N/A,,Haze,260,2013-02-13 18:30:00
1:00 AM,59.0,50.0,72,29.92,2.5,WNW,3.5,-,N/A,,Haze,300,2013-02-13 19:30:00
3:00 AM,57.2,50.0,77,29.92,1.9,Variable,2.3,-,N/A,,Mist,0,2013-02-13 21:30:00
4:00 AM,55.4,50.0,82,29.92,1.6,Variable,2.3,-,N/A,,Mist,0,2013-02-13 22:30:00
5:00 AM,55.4,50.0,82,29.92,1.6,Variable,2.3,-,N/A,,Mist,0,2013-02-13 23:30:00
5:30 AM,55.4,50.0,82,29.92,1.6,Variable,2.3,-,N/A,,Mist,0,2013-02-14 00:00:00
6:00 AM,53.6,50.0,88,29.95,1.2,Variable,2.3,-,N/A,,Mist,0,2013-02-14 00:30:00
7:00 AM,53.6,48.2,82,29.95,0.7,Variable,2.3,-,N/A,,Mist,0,2013-02-14 01:30:00
8:30 AM,61,51,62,30.01,1,WNW,4.6,,,,Mist,290,2013-02-14 03:00:00
9:00 AM,64.4,51.8,64,29.98,1.6,NW,4.6,-,N/A,,Haze,310,2013-02-14 03:30:00
9:30 AM,66.2,53.6,64,30.01,1.6,NW,4.6,-,N/A,,Haze,320,2013-02-14 04:00:00
10:30 AM,69.8,53.6,56,30.01,1.9,NW,3.5,-,N/A,,Haze,310,2013-02-14 05:00:00
11:00 AM,71.6,53.6,53,30.01,2.5,NW,3.5,-,N/A,,Haze,310,2013-02-14 05:30:00
11:30 AM,75,52,34,30.01,2,West,3.5,,,,Haze,270,2013-02-14 06:00:00
11:30 AM,75.2,51.8,44,30.01,2.8,West,3.5,-,N/A,,Haze,270,2013-02-14 06:00:00
12:30 PM,77.0,51.8,41,29.95,3.1,NW,6.9,-,N/A,,Haze,310,2013-02-14 07:00:00
1:00 PM,78.8,44.6,30,29.95,3.7,WSW,6.9,-,N/A,,Unknown,240,2013-02-14 07:30:00
1:30 PM,78.8,41.0,26,29.92,3.7,West,6.9,-,N/A,,Unknown,270,2013-02-14 08:00:00
2:00 PM,80.6,41.0,24,29.92,3.7,West,6.9,-,N/A,,Unknown,270,2013-02-14 08:30:00
3:00 PM,80.6,48.2,32,29.89,3.7,WSW,6.9,-,N/A,,Unknown,250,2013-02-14 09:30:00
3:30 PM,80.6,44.6,28,29.89,3.7,WSW,9.2,-,N/A,,Unknown,250,2013-02-14 10:00:00
4:00 PM,78.8,46.4,32,29.89,3.7,WNW,6.9,-,N/A,,Unknown,290,2013-02-14 10:30:00
4:30 PM,78.8,48.2,34,29.89,3.7,West,5.8,-,N/A,,Unknown,280,2013-02-14 11:00:00
5:00 PM,78.8,50.0,36,29.89,3.7,West,6.9,-,N/A,,Unknown,270,2013-02-14 11:30:00
5:30 PM,77,51,29,29.89,2,West,4.6,,,,Clear,270,2013-02-14 12:00:00
5:30 PM,77.0,50.0,39,29.89,3.7,West,4.6,-,N/A,,Unknown,270,2013-02-14 12:00:00
6:30 PM,71.6,53.6,53,29.86,3.1,WNW,2.3,-,N/A,,Haze,300,2013-02-14 13:00:00
7:00 PM,69.8,53.6,56,29.86,3.1,Variable,2.3,-,N/A,,Haze,0,2013-02-14 13:30:00
7:30 PM,68.0,51.8,56,29.89,3.1,Variable,2.3,-,N/A,,Haze,0,2013-02-14 14:00:00
8:00 PM,66.2,53.6,64,29.89,3.1,Variable,2.3,-,N/A,,Haze,0,2013-02-14 14:30:00
8:30 PM,64.4,53.6,68,29.92,2.5,Variable,2.3,-,N/A,,Haze,0,2013-02-14 15:00:00
11:00 PM,57.2,53.6,88,29.92,1.6,Calm,Calm,-,N/A,,Mist,0,2013-02-14 17:30:00